Regional Weather Roundup
Issued by NWS

Home | Current Version | Previous Version | Text Only | Print | Product List | Glossary On
Versions: 1 2 3 4 5 6 7 8 9 10 11 12 13 14 15 16 17 18 19 20 21 22 23 24 25 26 27 28 29 30 31 32 33 34 35 36 37 38 39 40 41 42 43 44 45 46 47 48 49 50
000
ASUS43 KMKX 040700
RWRWI

WISCONSIN REGIONAL WEATHER ROUNDUP
NATIONAL WEATHER SERVICE MILWAUKEE/SULLIVAN WI
200 AM CDT TUE AUG 04 2015

NOTE: "FAIR" INDICATES FEW OR NO CLOUDS BELOW 12,000 FEET WITH NO
SIGNIFICANT WEATHER AND/OR OBSTRUCTIONS TO VISIBILITY.

WIZ001-002-006>008-014>016-023>028-040800-
NORTHWEST WISCONSIN

CITY           SKY/WX    TMP DP  RH WIND       PRES   REMARKS
SUPERIOR ARPT  CLEAR     53  51  92 SW3       29.91S
ASHLAND        CLOUDY    58  54  86 SW6       29.89S
HAYWARD        CLEAR     52  50  93 CALM      29.93R
SIREN          CLEAR     53  50  90 CALM      29.94S
CUMBERLAND     CLEAR     55  50  82 NW6       29.94S
RICE LAKE      CLEAR     57  52  85 CALM      29.94F
CHETEK         CLEAR     60  55  81 NW6       29.93S
LADYSMITH      CLEAR     59  54  82 W5        29.94R
EAU CLAIRE     CLEAR     61  53  75 NW5       29.92R
MENOMONIE      CLEAR     62  54  74 W5        29.93S
NEW RICHMOND   CLEAR     56  52  88 CALM      29.95S
OSCEOLA        CLEAR     56  56 100 CALM      29.97S
$$

WIZ003>005-009-010-017-018-040800-
NORTH CENTRAL WISCONSIN

CITY           SKY/WX    TMP DP  RH WIND       PRES   REMARKS
MANITOWISH WTR PTCLDY    54  54 100 CALM      29.89F
ARBOR VITAE    CLEAR     57  55  92 CALM      29.90S
WOODRUFF       CLEAR     57  55  92 CALM      29.90S
RHINELANDER    PTCLDY    55  53  93 CALM      29.91S
EAGLE RIVER    CLOUDY    56  56 100 W5        29.88F
LAND O LAKES   CLOUDY    57  56  95 NW6       29.89S
PHILLIPS       CLEAR     56  54  94 CALM      29.90S
TOMAHAWK       CLOUDY    57  55  91 CALM      29.91S
MEDFORD        CLOUDY    59  55  85 W5        29.92S
MERRILL        NOT AVBL
$$

WIZ029-030-035-036-043>047-040800-
CENTRAL WISCONSIN

CITY           SKY/WX    TMP DP  RH WIND       PRES   REMARKS
WAUSAU         CLOUDY    64  55  72 W8        29.88F
MOSINEE        CLOUDY    61  55  82 W5        29.91S
MARSHFIELD     MOCLDY    60  53  77 NW6       29.91S
STEVENS POINT  CLOUDY    62  53  72 W5        29.90S
WAUPACA        MOCLDY    61  56  83 CALM      29.89F
WAUTOMA        NOT AVBL
WISC RAPIDS    CLOUDY    61  51  70 W5        29.90F
CAMP DOUGLAS   NOT AVBL
$$

WIZ011>013-019>022-031-037>040-048>050-040800-
NORTHEAST WISCONSIN

CITY           SKY/WX    TMP DP  RH WIND       PRES   REMARKS
ANTIGO         CLOUDY    57  55  94 CALM      29.91S
SHAWANO        MOCLDY    57  54  87 CALM      29.89S
OCONTO         CLEAR     56  56 100 W3        29.86S
STURGEON BAY   MOCLDY    61  54  77 NW5       29.89R
GREEN BAY      MOCLDY    59  56  89 W5        29.88S
MANITOWOC      NOT AVBL
APPLETON       PTCLDY    59  50  72 W7        29.89S
CLINTONVILLE   MOCLDY    59  54  82 CALM      29.88S
OSHKOSH        PTCLDY    62  53  72 SW5       29.88F
$$

WIZ032>034-041-042-053>061-040800-
SOUTHWEST WISCONSIN

CITY           SKY/WX    TMP DP  RH WIND       PRES   REMARKS
LA CROSSE      CLEAR     62  56  80 S6        29.91S
SPARTA         CLEAR     52  51  95 CALM      29.92S
VIROQUA        CLEAR     58  53  84 SW5       29.94S
BOSCOBEL       CLEAR     55  53  93 CALM      29.93F
PRAIRIE DU CHI CLEAR     57  54  87 CALM      29.93S
PLATTEVILLE    CLEAR     61  55  78 CALM      29.94F
$$

WIZ056-057-062-063-064-067-068-040800-
SOUTH CENTRAL WISCONSIN

CITY           SKY/WX    TMP DP  RH WIND       PRES   REMARKS
REEDSBURG      CLEAR     55  53  95 CALM      29.92S
BARABOO/DELLS  CLEAR     55  51  85 CALM      29.92S
LONE ROCK      NOT AVBL
MINERAL POINT  CLEAR     61  54  77 W3        29.94S
MADISON        CLEAR     60  52  74 CALM      29.91F
MIDDLETON      CLEAR     57  54  89 CALM      29.93S
WATERTOWN      CLEAR     55  55 100 CALM      29.91S
MONROE         CLEAR     63  54  72 W7        29.94S
JANESVILLE     CLEAR     61  55  82 CALM      29.92S
$$

WIZ051-052-058>065-066-070>072-040800-
SOUTHEAST WISCONSIN

CITY           SKY/WX    TMP DP  RH WIND       PRES   REMARKS
MILWAUKEE      CLEAR     68  51  54 W3        29.90S
WAUKESHA       CLEAR     59  50  72 W3        29.93R
MILWAUKEE/TIMM CLEAR     63  50  63 CALM      29.91S
RACINE         CLEAR     64  52  64 W6        29.92S
BURLINGTON     CLEAR     55  52  91 SW3       29.92S
KENOSHA        PTCLDY    58  54  86 W3        29.91S
FOND DU LAC    PTCLDY    60  54  80 SW6       29.90S
SHEBOYGAN      CLEAR     57  54  89 SW5       29.89S
WEST BEND      CLEAR     59  52  77 CALM      29.90F
JUNEAU         CLEAR     55  52  88 SW5       29.92S
$$

LSZ147-162-040800-
LAKE SUPERIOR

STATION/POSITION TIME  TEMP    WIND        PRES    WAVE
                       AIR SEA DIR/SP/G            HT/PER
                 (UTC) (F)     (DEG/KT/KT) (MB)    (FT/S)
W MID LAKE BUOY  0550   57 56  280/ 10/ 12 1010.5R   1/ 4
DEVILS ISLAND    0600   57     240/  9/ 11 1011.8R
PORT WING        0600   64     260/  8/ 13 1012.5
SAXON HARBOR     0640   61        CALM     1011.5S
$$

LMZ867-665-643>646-040800-
LAKE MICHIGAN

STATION/POSITION TIME  TEMP    WIND        PRES    WAVE
                       AIR SEA DIR/SP/G            HT/PER
                 (UTC) (F)     (DEG/KT/KT) (MB)    (FT/S)
CHAMBERS ISLAND  0600   62     280/  2/  4 1010.8S
S GREEN BAY BUOY 0600   65 71  320/ 10/ 12 1012.6R
N MID LAKE BUOY  0550   67 68  240/  6/  8 1009.8S   1
NORTHPORT PIER   0600   63     300/  9/ 15 1010.8S
SISTER BAY       0618   65     340/ 11/ 14   N/A
ALGOMA LAKESHORE 0612             CALM       N/A
KEWAUNEE LAKESHO 0600   62     290/  3/  4 1010.7S
SHEBOYGAN LAKESH 0600   67     280/  8/ 10 1012.1R
PORT WASHINGTON  0600   66     280/  4/  6 1012.9S
ATWATER BUOY     0600   67 65  280/  6/  6 1013.8S
MILWAUKEE LAKESH 0600   69     300/  5/  7   N/A
KENOSHA   LAKESH 0600   68     270/  9/ 12 1012.5R
$$

TC  - TEMPERATURE IN CELSIUS
VSB - VISIBILITY IN STATUTE MILES
WCI - WIND CHILL INDEX
HX  - HEAT INDEX




USA.gov is the U.S. government's official web portal to all federal, state and local government web resources and services.